Location: *
(55.6049°S, 142.1985°W)
Time: 15:44:23
(UTC+00:00)

Cosmos 1954 Rocket - Pass Details

Date: 12 May 2021
Orbit: 751 x 782 km, 74.0° (Epoch: 18 June)

Event Time Altitude Azimuth Distance (km) Brightness Sun altitude
Rises 15:30:17 0° 330° (NNW) 3,275 7.1 -14.3°
Reaches altitude 10° 15:32:40 10° 328° (NNW) 2,352 6.3 -14.0°
Maximum altitude 15:38:03 78° 241° (WSW) 814 4.0 -13.2°
Drops below altitude 10° 15:43:26 10° 153° (SSE) 2,361 6.7 -12.5°
Sets 15:45:50 0° 152° (SSE) 3,290 7.5 -12.2°
